Regional Weather Roundup
Issued by NWS Sioux Falls, SD

Home | Current Version | Previous Version | Text Only | Print | Product List | Glossary On
Versions: 1 2 3 4 5 6 7 8 9 10 11 12 13 14 15 16 17 18 19 20 21 22 23 24 25 26 27 28 29 30 31 32 33 34 35 36 37 38 39 40 41 42 43 44 45 46 47 48 49 50
000
ASUS43 KFSD 012302
RWRFSD

WEATHER ROUNDUP FOR SE SOUTH DAKOTA/SW MINNESOTA/NW IOWA
NATIONAL WEATHER SERVICE SIOUX FALLS SD
600 PM CDT SAT AUG 01 2015

NOTE: "FAIR" INDICATES FEW OR NO CLOUDS BELOW 12,000 FEET WITH NO
SIGNIFICANT WEATHER AND OR OBSTRUCTIONS TO VISIBILITY.


SDZ038>040-050-052>070-020000-
SOUTHEAST SOUTH DAKOTA

CITY           SKY/WX    TMP DP  RH WIND       PRES   REMARKS
BROOKINGS      SUNNY     84  64  51 SW16      29.87F
CHAMBERLAIN    SUNNY     89  60  38 W17G25    29.86S
HURON          SUNNY     88  65  46 SW10      29.79F
MADISON        FAIR      82  61  47 SW17G24   29.87F
MITCHELL       SUNNY     87  62  43 SW9       29.84F
SIOUX FALLS    MOSUNNY   84  62  47 VRB6      29.87F
WINNER         FAIR      91  57  31 SW18G28   29.89F
YANKTON        SUNNY     88  55  33 SW10      29.85F
$$

MNZ071-072-080-081-089-090-097-098-020000-
SOUTHWEST MINNESOTA

CITY           SKY/WX    TMP DP  RH WIND       PRES   REMARKS
FAIRMONT       SUNNY     84  63  48 SW10      29.88F
JACKSON        SUNNY     84  64  51 SW9       29.89F
LUVERNE        SUNNY     82  61  47 SW10      29.88F
MARSHALL       SUNNY     86  64  48 SW14      29.84F
MONTEVIDEO     SUNNY     90  66  45 W7        29.82F
PIPESTONE      SUNNY     81  63  54 SW10G18   29.88S
REDWOOD FALLS  SUNNY     87  63  44 SW15      29.82F
TRACY          SUNNY     84  66  54 SW10      29.85F
WINDOM         SUNNY     84  63  48 S13       29.86F
WORTHINGTON    SUNNY     81  63  54 SW14      29.88F
$$

IAZ001>003-012>014-020>022-031-032-NEZ013-014-SDZ071-020000-
NORTHWEST IOWA

CITY           SKY/WX    TMP DP  RH WIND       PRES   REMARKS
DENISON        PTSUNNY   81  72  74 VRB6      29.92F
ESTHERVILLE    SUNNY     82  63  52 SW10      29.90F
SIOUX CITY     SUNNY     82  68  62 SE12      29.89F
SPENCER        SUNNY     83  64  52 SW8       29.91F
STORM LAKE     MOSUNNY   81  68  65 S9        29.94F
$$

ABBREVIATIONS USED IN REMARKS
   TC - TEMPERATURE IN CELSIUS
  WCI - WIND CHILL INDEX
   HX - HEAT INDEX
  VSB - VISIBILITY




USA.gov is the U.S. government's official web portal to all federal, state and local government web resources and services.